Flag for Egypt Weather past 2 weeks in Al Jizah, Egypt

81 °F


Feels Like: 81 °F
Forecast: 68 / 90 °F
Wind: 12 mph from Northwest

Location: Cairo Airport

Current Time: Oct 7, 2015 at 7:33:53 PM

Latest Report: Oct 7, 2015 at 7:00 PM

Visibility: 10 mi

Pressure: 29.86 "Hg

Humidity: 48%

Dew point: 59 °F

Location of Al JizahLocation

Historic Weather in Al Jizah — Graph


Al Jizah temperature yesterday

Maximum temperature yesterday: 88 °F (at 2:00 PM)
Minimum temperature yesterday: 70 °F (at 12:30 AM)
Average temperature yesterday: 77 °F

Past Weeks' High & Low Weather Summary

High100 °F (Sep 24, 3:00 PM)84% (Sep 30, 5:00 AM)30.15 "Hg (Sep 30, 5:00 AM)
Low70 °F (Oct 6, 12:30 AM)16% (Sep 22, 6:00 PM)29.77 "Hg (Sep 22, 6:00 PM)
Average83 °F52%29.94 "Hg
* Reported Sep 22 6:00 PM — Oct 7 6:30 PM, Al Jizah, Weather by CustomWeather, © 2015

Note: Actual official high and low records may vary slightly from our data, if they occured in-between our weather recording intervals... More about our weather records


Al Jizah weather history for previous 24 hours

Time TempWeatherWind HumidityBarometerVisibility
6:30 PM
Wed, Oct 7
82 °FPassing clouds.8 mph42%29.86 "HgN/A
6:00 PM82 °FPassing clouds.8 mph42%29.86 "HgN/A
5:30 PM84 °FScattered clouds.10 mph43%29.83 "HgN/A
5:00 PM84 °FScattered clouds.7 mph40%29.83 "HgN/A
4:30 PM84 °FScattered clouds.12 mph40%29.83 "HgN/A
4:00 PM84 °FScattered clouds.14 mph37%29.83 "HgN/A
3:30 PM86 °FScattered clouds.14 mph35%29.83 "HgN/A
3:00 PM86 °FScattered clouds.9 mph35%29.83 "HgN/A
2:30 PM84 °FPartly sunny.9 mph37%29.83 "HgN/A
2:00 PM84 °FPartly sunny.13 mph43%29.83 "HgN/A
1:30 PM84 °FPartly sunny.8 mph43%29.83 "HgN/A
1:00 PM84 °FPartly sunny.8 mph45%29.83 "HgN/A
12:30 PM82 °FPartly sunny.10 mph51%29.86 "HgN/A
12:00 PM82 °FPartly sunny.7 mph51%29.86 "HgN/A
11:30 AM82 °FPartly sunny.7 mph51%29.86 "HgN/A
11:00 AM81 °FPartly sunny.13 mph54%29.86 "HgN/A
10:30 AM81 °FPartly sunny.7 mph54%29.86 "HgN/A
10:00 AM79 °FPartly sunny.8 mph61%29.89 "HgN/A
9:30 AM79 °FPartly sunny.6 mph61%29.89 "HgN/A
9:00 AM79 °FPartly sunny.8 mph61%29.89 "HgN/A
8:30 AM79 °FPartly sunny.7 mph61%29.89 "HgN/A
8:00 AM79 °FPartly sunny.7 mph65%29.86 "HgN/A
7:30 AM75 °FPartly sunny.6 mph69%29.86 "HgN/A
7:00 AM73 °FPartly sunny.No wind74%29.86 "HgN/A
6:30 AM73 °FScattered clouds.No wind74%29.83 "HgN/A
6:00 AM72 °FSunny.No wind73%29.83 "Hg10 mi
5:30 AM72 °FClear.No wind73%29.83 "Hg10 mi
5:00 AM73 °FClear.No wind74%29.83 "Hg10 mi
4:30 AM73 °FClear.No wind74%29.83 "Hg10 mi
4:00 AM73 °FClear.2 mph74%29.83 "Hg10 mi
3:30 AM73 °FClear.2 mph74%29.83 "Hg10 mi
3:00 AM75 °FClear.No wind69%29.83 "Hg10 mi
2:30 AM75 °FClear.5 mph69%29.83 "Hg10 mi
2:00 AM75 °FClear.6 mph69%29.83 "Hg10 mi
1:30 AM75 °FClear.6 mph69%29.83 "Hg10 mi
1:00 AM75 °FClear.6 mph69%29.83 "Hg10 mi
12:30 AM75 °FClear.5 mph69%29.83 "Hg10 mi
12:00 AM75 °FClear.2 mph69%29.83 "Hg10 mi
11:30 PM
Tue, Oct 6
77 °FClear.6 mph65%29.83 "Hg10 mi
11:00 PM77 °FClear.6 mph65%29.86 "Hg10 mi
10:30 PM79 °FClear.8 mph65%29.86 "Hg10 mi
10:00 PM79 °FClear.8 mph65%29.86 "Hg10 mi
9:30 PM81 °FClear.8 mph62%29.86 "Hg10 mi
9:00 PM81 °FClear.8 mph62%29.86 "Hg10 mi
8:30 PM81 °FClear.3 mph62%29.86 "Hg10 mi
8:00 PM81 °FClear.6 mph62%29.86 "Hg10 mi
7:30 PM79 °FPassing clouds.2 mph54%29.83 "HgN/A
7:00 PM79 °FPassing clouds.2 mph54%29.83 "HgN/A
Weather by CustomWeather, © 2015

See weather overviewHow to use our weather pages